| time (UTC) | temp F | wind direction | speed MPH | gust MPH | rain 1hr in | rain 24hr in | rain mn in | humidity % | barometer mb |
| 20260504141220 | 64 | 300 | 5.0 | 10.0 | 0.00 | 0.00 | 0.00 | 54 | 1015.0 |
| 20260504140720 | 64 | 314 | 8.0 | 12.0 | 0.00 | 0.00 | 0.00 | 55 | 1015.0 |
| 20260504140221 | 64 | 328 | 6.0 | 9.0 | 0.00 | 0.00 | 0.00 | 56 | 1015.0 |
| 20260504130719 | 60 | 308 | 8.0 | 13.0 | 0.00 | 0.00 | 0.00 | 65 | 1016.0 |
| 20260504130221 | 60 | 318 | 9.0 | 14.0 | 0.00 | 0.00 | 0.00 | 65 | 1016.0 |
| 20260504120218 | 55 | 251 | 7.0 | 9.0 | 0.00 | 0.00 | 0.00 | 72 | 1016.0 |
| 20260504110718 | 51 | 248 | 5.0 | 7.0 | 0.00 | 0.00 | 0.00 | 79 | 1017.0 |
| 20260504110219 | 51 | 254 | 6.0 | 7.0 | 0.00 | 0.00 | 0.00 | 79 | 1017.0 |
| 20260504100221 | 50 | 244 | 3.0 | 5.0 | 0.00 | 0.00 | 0.00 | 80 | 1016.0 |
| 20260504081719 | 49 | 285 | 3.0 | 4.0 | 0.00 | 0.00 | 0.00 | 77 | 1017.0 |
| 20260504081219 | 49 | 263 | 3.0 | 5.0 | 0.00 | 0.00 | 0.00 | 77 | 1017.0 |
| 20260504080718 | 49 | 257 | 5.0 | 8.0 | 0.00 | 0.00 | 0.00 | 77 | 1017.0 |
| 20260504080219 | 48 | 260 | 4.0 | 8.0 | 0.00 | 0.00 | 0.00 | 76 | 1017.0 |
| 20260504070218 | 48 | 258 | 7.0 | 10.0 | 0.00 | 0.00 | 0.00 | 68 | 1017.0 |
| 20260504060218 | 46 | 284 | 4.0 | 5.0 | 0.00 | 0.00 | 0.00 | 67 | 1017.0 |
| 20260504050718 | 45 | 264 | 2.0 | 4.0 | 0.00 | 0.00 | 0.00 | 68 | 1017.0 |
| 20260504050219 | 45 | 263 | 2.0 | 4.0 | 0.00 | 0.00 | 0.00 | 69 | 1017.0 |
| 20260504045718 | 45 | 249 | 2.0 | 4.0 | 0.00 | 0.00 | 0.00 | 68 | 1017.0 |
| 20260504045218 | 45 | 312 | 3.0 | 5.0 | 0.00 | 0.00 | 0.00 | 67 | 1017.0 |
| 20260504044719 | 44 | 311 | 2.0 | 4.0 | 0.00 | 0.00 | 0.00 | 70 | 1017.0 |
| 20260504044218 | 43 | 217 | 2.0 | 4.0 | 0.00 | 0.00 | 0.00 | 70 | 1016.0 |
| 20260504043718 | 43 | 220 | 2.0 | 2.0 | 0.00 | 0.00 | 0.00 | 70 | 1017.0 |
| 20260504043218 | 43 | 216 | 0.0 | 2.0 | 0.00 | 0.00 | 0.00 | 69 | 1017.0 |
| 20260504042718 | 42 | 255 | 1.0 | 2.0 | 0.00 | 0.00 | 0.00 | 70 | 1017.0 |
| 20260504042219 | 42 | 0 | 0.0 | 0.0 | 0.00 | 0.00 | 0.00 | 71 | 1016.0 |
| 20260504041719 | 43 | 259 | 1.0 | 2.0 | 0.00 | 0.00 | 0.00 | 70 | 1016.0 |
| 20260504041218 | 43 | 225 | 0.0 | 2.0 | 0.00 | 0.00 | 0.00 | 69 | 1016.0 |
| 20260504040720 | 44 | 218 | 1.0 | 2.0 | 0.00 | 0.00 | 0.00 | 67 | 1016.0 |
| 20260504040218 | 44 | 227 | 1.0 | 2.0 | 0.00 | 0.00 | 0.00 | 67 | 1016.0 |
| 20260504035719 | 44 | 118 | 0.0 | 2.0 | 0.00 | 0.00 | 0.00 | 67 | 1016.0 |
| 20260504035218 | 45 | 52 | 0.0 | 1.0 | 0.00 | 0.00 | 0.00 | 66 | 1016.0 |
| 20260504034718 | 46 | 53 | 2.0 | 3.0 | 0.00 | 0.00 | 0.00 | 64 | 1016.0 |
| 20260504034219 | 46 | 299 | 2.0 | 4.0 | 0.00 | 0.00 | 0.00 | 63 | 1016.0 |
| 20260504033718 | 46 | 150 | 0.0 | 2.0 | 0.00 | 0.00 | 0.00 | 63 | 1016.0 |
| 20260504033220 | 47 | 328 | 2.0 | 3.0 | 0.00 | 0.00 | 0.00 | 62 | 1016.0 |
| 20260504032718 | 47 | 322 | 2.0 | 4.0 | 0.00 | 0.00 | 0.00 | 59 | 1016.0 |
| 20260504032219 | 47 | 303 | 4.0 | 6.0 | 0.00 | 0.00 | 0.00 | 60 | 1016.0 |
| 20260504031718 | 47 | 301 | 1.0 | 3.0 | 0.00 | 0.00 | 0.00 | 61 | 1016.0 |
| 20260504031218 | 47 | 268 | 0.0 | 3.0 | 0.00 | 0.00 | 0.00 | 61 | 1016.0 |
| 20260504030718 | 47 | 288 | 0.0 | 2.0 | 0.00 | 0.00 | 0.00 | 59 | 1016.0 |
| 20260504030218 | 46 | 311 | 3.0 | 4.0 | 0.00 | 0.00 | 0.00 | 60 | 1016.0 |
| 20260504025719 | 45 | 309 | 2.0 | 6.0 | 0.00 | 0.00 | 0.00 | 64 | 1016.0 |
| 20260504025218 | 45 | 182 | 0.0 | 1.0 | 0.00 | 0.00 | 0.00 | 65 | 1016.0 |
| 20260504024719 | 45 | 234 | 0.0 | 2.0 | 0.00 | 0.00 | 0.00 | 65 | 1016.0 |
| 20260504024218 | 46 | 211 | 2.0 | 2.0 | 0.00 | 0.00 | 0.00 | 64 | 1016.0 |
| 20260504023718 | 47 | 223 | 0.0 | 2.0 | 0.00 | 0.00 | 0.00 | 62 | 1016.0 |
| 20260504023218 | 47 | 277 | 2.0 | 3.0 | 0.00 | 0.00 | 0.00 | 60 | 1016.0 |
| 20260504022718 | 47 | 292 | 2.0 | 5.0 | 0.00 | 0.00 | 0.00 | 60 | 1016.0 |
| 20260504022218 | 46 | 0 | 0.0 | 0.0 | 0.00 | 0.00 | 0.00 | 62 | 1016.0 |
| 20260504021718 | 47 | 321 | 0.0 | 0.0 | 0.00 | 0.00 | 0.00 | 61 | 1016.0 |
| 20260504021218 | 47 | 357 | 0.0 | 1.0 | 0.00 | 0.00 | 0.00 | 60 | 1016.0 |
| 20260504020718 | 48 | 314 | 0.0 | 2.0 | 0.00 | 0.00 | 0.00 | 59 | 1016.0 |
| 20260504020218 | 47 | 292 | 2.0 | 3.0 | 0.00 | 0.00 | 0.00 | 58 | 1016.0 |
| 20260504015719 | 46 | 310 | 1.0 | 4.0 | 0.00 | 0.00 | 0.00 | 61 | 1016.0 |
| 20260504015218 | 46 | 0 | 0.0 | 0.0 | 0.00 | 0.00 | 0.00 | 64 | 1016.0 |
| 20260504014719 | 47 | 13 | 1.0 | 2.0 | 0.00 | 0.00 | 0.00 | 62 | 1016.0 |
| 20260504014218 | 47 | 206 | 0.0 | 2.0 | 0.00 | 0.00 | 0.00 | 60 | 1016.0 |
| 20260504013718 | 47 | 249 | 1.0 | 3.0 | 0.00 | 0.00 | 0.00 | 60 | 1016.0 |
| 20260504013219 | 46 | 246 | 1.0 | 2.0 | 0.00 | 0.00 | 0.00 | 60 | 1016.0 |
| 20260504012718 | 46 | 272 | 0.0 | 0.0 | 0.00 | 0.00 | 0.00 | 62 | 1016.0 |
| 20260504012218 | 47 | 0 | 0.0 | 0.0 | 0.00 | 0.00 | 0.00 | 61 | 1016.0 |
| 20260504011718 | 47 | 0 | 0.0 | 0.0 | 0.00 | 0.00 | 0.00 | 60 | 1016.0 |
| 20260504011219 | 48 | 293 | 0.0 | 1.0 | 0.00 | 0.00 | 0.00 | 60 | 1015.0 |
| 20260504010718 | 49 | 255 | 1.0 | 2.0 | 0.00 | 0.00 | 0.00 | 58 | 1015.0 |
| 20260504010219 | 50 | 0 | 0.0 | 0.0 | 0.00 | 0.00 | 0.00 | 56 | 1015.0 |
| 20260504005718 | 51 | 261 | 0.0 | 1.0 | 0.00 | 0.00 | 0.00 | 55 | 1015.0 |
| 20260504005218 | 51 | 315 | 0.0 | 2.0 | 0.00 | 0.00 | 0.00 | 53 | 1015.0 |
| 20260504004719 | 50 | 273 | 2.0 | 2.0 | 0.00 | 0.00 | 0.00 | 52 | 1015.0 |
| 20260504004219 | 50 | 0 | 0.0 | 0.0 | 0.00 | 0.00 | 0.00 | 54 | 1015.0 |
| 20260504003718 | 51 | 40 | 0.0 | 1.0 | 0.00 | 0.00 | 0.00 | 51 | 1015.0 |
| 20260504003218 | 52 | 354 | 0.0 | 0.0 | 0.00 | 0.00 | 0.00 | 50 | 1015.0 |
| 20260504002718 | 53 | 344 | 0.0 | 0.0 | 0.00 | 0.00 | 0.00 | 49 | 1015.0 |
| 20260504002218 | 53 | 279 | 2.0 | 3.0 | 0.00 | 0.00 | 0.00 | 47 | 1015.0 |
| 20260504001718 | 54 | 293 | 2.0 | 3.0 | 0.00 | 0.00 | 0.00 | 47 | 1015.0 |
| 20260504001218 | 54 | 276 | 1.0 | 2.0 | 0.00 | 0.00 | 0.00 | 47 | 1015.0 |
| 20260504000721 | 54 | 299 | 0.0 | 2.0 | 0.00 | 0.00 | 0.00 | 47 | 1015.0 |
| 20260504000219 | 54 | 338 | 2.0 | 4.0 | 0.00 | 0.00 | 0.00 | 46 | 1015.0 |
| 20260503235718 | 55 | 341 | 1.0 | 2.0 | 0.00 | 0.00 | 0.00 | 45 | 1015.0 |
| 20260503235218 | 55 | 321 | 2.0 | 4.0 | 0.00 | 0.00 | 0.00 | 45 | 1015.0 |
| 20260503234718 | 55 | 337 | 2.0 | 3.0 | 0.00 | 0.00 | 0.00 | 44 | 1015.0 |
| 20260503234218 | 56 | 346 | 2.0 | 3.0 | 0.00 | 0.00 | 0.00 | 43 | 1015.0 |
| 20260503233718 | 57 | 357 | 2.0 | 4.0 | 0.00 | 0.00 | 0.00 | 42 | 1015.0 |
| 20260503233218 | 57 | 13 | 3.0 | 5.0 | 0.00 | 0.00 | 0.00 | 41 | 1015.0 |
| 20260503232718 | 58 | 5 | 3.0 | 5.0 | 0.00 | 0.00 | 0.00 | 41 | 1015.0 |
| 20260503232220 | 58 | 10 | 5.0 | 7.0 | 0.00 | 0.00 | 0.00 | 40 | 1015.0 |
| 20260503231718 | 58 | 22 | 9.0 | 10.0 | 0.00 | 0.00 | 0.00 | 39 | 1015.0 |
| 20260503231218 | 59 | 20 | 9.0 | 11.0 | 0.00 | 0.00 | 0.00 | 39 | 1014.0 |
| 20260503230718 | 59 | 19 | 9.0 | 11.0 | 0.00 | 0.00 | 0.00 | 39 | 1014.0 |
| 20260503225745 | 59 | 23 | 10.0 | 13.0 | 0.00 | 0.00 | 0.00 | 38 | 1014.0 |
| 20260503225218 | 59 | 29 | 9.0 | 11.0 | 0.00 | 0.00 | 0.00 | 38 | 1014.0 |
| 20260503224718 | 59 | 34 | 12.0 | 15.0 | 0.00 | 0.00 | 0.00 | 38 | 1014.0 |
| 20260503224218 | 59 | 29 | 12.0 | 16.0 | 0.00 | 0.00 | 0.00 | 38 | 1014.0 |
| 20260503223718 | 59 | 17 | 14.0 | 17.0 | 0.00 | 0.00 | 0.00 | 38 | 1014.0 |
| 20260503223218 | 60 | 11 | 11.0 | 15.0 | 0.00 | 0.00 | 0.00 | 38 | 1014.0 |
| 20260503222718 | 60 | 14 | 8.0 | 11.0 | 0.00 | 0.00 | 0.00 | 38 | 1014.0 |
| 20260503222218 | 60 | 17 | 10.0 | 13.0 | 0.00 | 0.00 | 0.00 | 39 | 1014.0 |
| 20260503221718 | 60 | 21 | 12.0 | 15.0 | 0.00 | 0.00 | 0.00 | 39 | 1014.0 |
| 20260503221219 | 60 | 4 | 12.0 | 22.0 | 0.00 | 0.00 | 0.00 | 38 | 1014.0 |
| 20260503220718 | 60 | 18 | 10.0 | 14.0 | 0.00 | 0.00 | 0.00 | 38 | 1014.0 |
| 20260503220219 | 60 | 7 | 11.0 | 13.0 | 0.00 | 0.00 | 0.00 | 38 | 1014.0 |
| 20260503215718 | 60 | 356 | 9.0 | 12.0 | 0.00 | 0.00 | 0.00 | 38 | 1014.0 |
| 20260503215218 | 60 | 12 | 11.0 | 13.0 | 0.00 | 0.00 | 0.00 | 38 | 1014.0 |
| 20260503214719 | 60 | 40 | 8.0 | 11.0 | 0.00 | 0.00 | 0.00 | 38 | 1014.0 |
| 20260503214218 | 60 | 353 | 9.0 | 11.0 | 0.00 | 0.00 | 0.00 | 38 | 1014.0 |
| 20260503213718 | 60 | 21 | 8.0 | 12.0 | 0.00 | 0.00 | 0.00 | 38 | 1014.0 |
| 20260503213219 | 60 | 24 | 9.0 | 13.0 | 0.00 | 0.00 | 0.00 | 38 | 1014.0 |
| 20260503212718 | 60 | 7 | 11.0 | 15.0 | 0.00 | 0.00 | 0.00 | 38 | 1014.0 |
| 20260503212218 | 60 | 21 | 11.0 | 15.0 | 0.00 | 0.00 | 0.00 | 38 | 1014.0 |
| 20260503211718 | 59 | 0 | 11.0 | 15.0 | 0.00 | 0.00 | 0.00 | 38 | 1014.0 |
| 20260503211218 | 60 | 6 | 16.0 | 24.0 | 0.00 | 0.00 | 0.00 | 37 | 1014.0 |
| 20260503210718 | 60 | 18 | 11.0 | 15.0 | 0.00 | 0.00 | 0.00 | 37 | 1014.0 |
| 20260503210218 | 60 | 38 | 10.0 | 13.0 | 0.00 | 0.00 | 0.00 | 38 | 1014.0 |
| 20260503205719 | 60 | 19 | 10.0 | 13.0 | 0.00 | 0.00 | 0.00 | 38 | 1014.0 |
| 20260503205218 | 60 | 11 | 9.0 | 13.0 | 0.00 | 0.00 | 0.00 | 37 | 1014.0 |
| 20260503204719 | 60 | 13 | 12.0 | 19.0 | 0.00 | 0.00 | 0.00 | 38 | 1014.0 |
| 20260503204218 | 59 | 3 | 14.0 | 21.0 | 0.00 | 0.00 | 0.00 | 38 | 1014.0 |
| 20260503203718 | 59 | 12 | 9.0 | 13.0 | 0.00 | 0.00 | 0.00 | 38 | 1014.0 |
| 20260503203218 | 60 | 0 | 15.0 | 20.0 | 0.00 | 0.00 | 0.00 | 38 | 1014.0 |
| 20260503202718 | 59 | 346 | 12.0 | 15.0 | 0.00 | 0.00 | 0.00 | 38 | 1014.0 |
| 20260503202219 | 59 | 12 | 12.0 | 16.0 | 0.00 | 0.00 | 0.00 | 38 | 1014.0 |
| 20260503201719 | 59 | 356 | 8.0 | 11.0 | 0.00 | 0.00 | 0.00 | 38 | 1014.0 |
| 20260503201218 | 60 | 4 | 14.0 | 17.0 | 0.00 | 0.00 | 0.00 | 38 | 1014.0 |
| 20260503200718 | 60 | 20 | 10.0 | 20.0 | 0.00 | 0.00 | 0.00 | 37 | 1014.0 |
| 20260503200219 | 60 | 14 | 13.0 | 17.0 | 0.00 | 0.00 | 0.00 | 37 | 1014.0 |
| 20260503195718 | 60 | 13 | 11.0 | 13.0 | 0.00 | 0.00 | 0.00 | 37 | 1014.0 |
| 20260503195218 | 60 | 19 | 7.0 | 11.0 | 0.00 | 0.00 | 0.00 | 37 | 1014.0 |
| 20260503194718 | 60 | 351 | 10.0 | 13.0 | 0.00 | 0.00 | 0.00 | 37 | 1014.0 |
| 20260503194218 | 60 | 2 | 7.0 | 13.0 | 0.00 | 0.00 | 0.00 | 38 | 1014.0 |
| 20260503193718 | 59 | 53 | 11.0 | 13.0 | 0.00 | 0.00 | 0.00 | 38 | 1014.0 |
| 20260503193218 | 59 | 19 | 13.0 | 16.0 | 0.00 | 0.00 | 0.00 | 37 | 1014.0 |
| 20260503192719 | 59 | 11 | 12.0 | 17.0 | 0.00 | 0.00 | 0.00 | 37 | 1015.0 |
| 20260503192219 | 59 | 9 | 8.0 | 11.0 | 0.00 | 0.00 | 0.00 | 38 | 1015.0 |
| 20260503191718 | 59 | 18 | 11.0 | 16.0 | 0.00 | 0.00 | 0.00 | 38 | 1014.0 |
| 20260503191218 | 59 | 1 | 11.0 | 14.0 | 0.00 | 0.00 | 0.00 | 37 | 1014.0 |
| 20260503190718 | 59 | 25 | 10.0 | 14.0 | 0.00 | 0.00 | 0.00 | 38 | 1015.0 |
| 20260503190218 | 59 | 9 | 12.0 | 16.0 | 0.00 | 0.00 | 0.00 | 38 | 1015.0 |
| 20260503185718 | 59 | 14 | 12.0 | 16.0 | 0.00 | 0.00 | 0.00 | 38 | 1015.0 |
| 20260503185219 | 58 | 23 | 14.0 | 16.0 | 0.00 | 0.00 | 0.00 | 38 | 1015.0 |
| 20260503184718 | 59 | 18 | 10.0 | 16.0 | 0.00 | 0.00 | 0.00 | 38 | 1015.0 |
| 20260503184218 | 58 | 27 | 11.0 | 15.0 | 0.00 | 0.00 | 0.00 | 39 | 1015.0 |
| 20260503183718 | 58 | 0 | 12.0 | 16.0 | 0.00 | 0.00 | 0.00 | 38 | 1015.0 |
| 20260503183218 | 58 | 31 | 14.0 | 20.0 | 0.00 | 0.00 | 0.00 | 38 | 1015.0 |
| 20260503182718 | 58 | 26 | 11.0 | 15.0 | 0.00 | 0.00 | 0.00 | 38 | 1015.0 |
| 20260503182218 | 58 | 32 | 15.0 | 18.0 | 0.00 | 0.00 | 0.00 | 39 | 1015.0 |
| 20260503181718 | 58 | 30 | 11.0 | 14.0 | 0.00 | 0.00 | 0.00 | 39 | 1015.0 |
| 20260503181219 | 58 | 348 | 11.0 | 15.0 | 0.00 | 0.00 | 0.00 | 39 | 1015.0 |
| 20260503180718 | 58 | 47 | 9.0 | 16.0 | 0.00 | 0.00 | 0.00 | 39 | 1015.0 |
| 20260503180218 | 59 | 46 | 8.0 | 12.0 | 0.00 | 0.00 | 0.00 | 39 | 1015.0 |
| 20260503175718 | 59 | 48 | 11.0 | 14.0 | 0.00 | 0.00 | 0.00 | 38 | 1015.0 |
| 20260503175219 | 59 | 34 | 12.0 | 17.0 | 0.00 | 0.00 | 0.00 | 38 | 1015.0 |
| 20260503174718 | 58 | 10 | 10.0 | 13.0 | 0.00 | 0.00 | 0.00 | 39 | 1015.0 |
| 20260503174219 | 57 | 24 | 9.0 | 12.0 | 0.00 | 0.00 | 0.00 | 40 | 1015.0 |
| 20260503173718 | 57 | 5 | 11.0 | 16.0 | 0.00 | 0.00 | 0.00 | 40 | 1015.0 |
| 20260503173218 | 56 | 3 | 9.0 | 12.0 | 0.00 | 0.00 | 0.00 | 42 | 1015.0 |
| 20260503172718 | 57 | 30 | 8.0 | 12.0 | 0.00 | 0.00 | 0.00 | 41 | 1015.0 |
| 20260503172218 | 57 | 31 | 11.0 | 15.0 | 0.00 | 0.00 | 0.00 | 40 | 1015.0 |
| 20260503171718 | 57 | 20 | 15.0 | 19.0 | 0.00 | 0.00 | 0.00 | 41 | 1015.0 |
| 20260503171218 | 56 | 53 | 9.0 | 13.0 | 0.00 | 0.00 | 0.00 | 43 | 1015.0 |
| 20260503170718 | 57 | 34 | 10.0 | 16.0 | 0.00 | 0.00 | 0.00 | 41 | 1015.0 |
| 20260503170218 | 56 | 17 | 13.0 | 16.0 | 0.00 | 0.00 | 0.00 | 41 | 1015.0 |
| 20260503160218 | 53 | 30 | 11.0 | 16.0 | 0.00 | 0.00 | 0.00 | 44 | 1015.0 |
| 20260503150718 | 52 | 10 | 15.0 | 18.0 | 0.00 | 0.00 | 0.00 | 47 | 1015.0 |
| 20260503150218 | 52 | 58 | 12.0 | 18.0 | 0.00 | 0.00 | 0.00 | 48 | 1015.0 |